Regional Weather Roundup
Issued by NWS

Home | Current Version | Previous Version | Graphics & Text | Print | Product List | Glossary On
Versions: 1 2 3 4 5 6 7 8 9 10 11 12 13 14 15 16 17 18 19 20 21 22 23 24 25 26 27 28 29 30 31 32 33 34 35 36 37 38 39 40 41 42 43 44 45 46 47 48 49 50
000
ASUS43 KLMK 310110
RWRKY
KENTUCKY REGIONAL WEATHER ROUNDUP
NATIONAL WEATHER SERVICE LOUISVILLE KY
900 PM EDT MON MAY 30 2016

NOTE "FAIR" INDICATES FEW OR NO CLOUDS BELOW 12,000 FEET
WITH NO SIGNIFICANT WEATHER AND/OR OBSTRUCTIONS TO VISIBILITY.

KYZ001>023-026-027-061>063-070>075-310200-
WESTERN AND SOUTH CENTRAL KENTUCKY

CITY           SKY/WX    TMP DP  RH WIND       PRES   REMARKS
PADUCAH        CLOUDY    76  64  66 CALM      29.97S
HENDERSON      CLOUDY    81  57  44 CALM      29.96S
OWENSBORO      PTCLDY    83  57  40 NE3       29.98S
HOPKINSVILLE   CLOUDY    78  61  54 N3        29.98R
BOWLING GREEN  CLOUDY    81  56  42 CALM      29.97S
GLASGOW        CLEAR     75  61  60 CALM      29.98S
$$

KYZ024-025-028>034-038-045-046-053-310200-
NORTH CENTRAL KENTUCKY

CITY           SKY/WX    TMP DP  RH WIND       PRES   REMARKS
LOUISVILLE/SDF PTCLDY    83  54  36 N3        29.97S
LOUISVILLE/LOU CLEAR     81  56  42 CALM      29.98R
FORT KNOX      CLEAR     72  62  68 N2        29.97S
$$

KYZ035>037-039>044-047>052-055>060-089>105-310200-
NORTHEAST KENTUCKY

CITY           SKY/WX    TMP DP  RH WIND       PRES   REMARKS
LEXINGTON      CLEAR     78  58  49 N3        29.99S
COVINGTON      PTCLDY    77  57  50 W3        29.98S
FRANKFORT      CLEAR     74  60  61 CALM      29.98R
$$

KYZ054-064>069-076>088-106>120-310200-
SOUTHEAST KENTUCKY

CITY           SKY/WX    TMP DP  RH WIND       PRES   REMARKS
JACKSON        CLEAR     73  60  63 CALM      30.01S
LONDON         CLEAR     77  60  55 CALM      30.00S
SOMERSET       CLEAR     75  57  53 CALM      30.00R
MIDDLESBORO    CLEAR     73  65  76 CALM      29.99S
MONTICELLO     CLEAR     72  64  76 N14       30.01R
$$





USA.gov is the U.S. government's official web portal to all federal, state and local government web resources and services.